Date,TemperatureHighF,TemperatureAvgF,TemperatureLowF,DewpointHighF,DewpointAvgF,DewpointLowF,HumidityHigh,HumidityAvg,HumidityLow,PressureMaxIn,PressureMinIn,WindSpeedMaxMPH,WindSpeedAvgMPH,GustSpeedMaxMPH,PrecipitationSumIn
2013-3-1,40.9,36.8,30.4,37.0,31.1,27.2,95,80,64,29.71,29.56,11,1,11,0.01
2013-3-2,40.9,37.3,32.1,37.0,29.7,25.9,86,74,63,29.70,29.57,12,1,12,0.00
2013-3-3,39.6,33.0,30.0,30.8,27.4,24.0,93,80,66,29.67,29.59,12,2,12,0.00
2013-3-4,40.9,33.1,26.3,37.0,24.6,19.5,92,71,57,29.78,29.57,23,6,23,0.00
2013-3-5,44.4,34.9,29.2,31.1,26.7,22.3,91,72,56,30.08,29.78,13,1,15,0.00
2013-3-6,37.5,34.6,32.3,34.2,32.0,29.5,95,90,73,30.12,30.06,24,2,24,0.15
2013-3-7,32.8,30.8,29.2,30.5,28.9,27.2,95,92,87,30.08,30.02,24,2,24,0.14
2013-3-8,40.9,31.3,28.6,37.0,29.4,24.5,96,93,69,30.18,29.57,15,2,15,0.02
2013-3-9,49.9,37.9,25.2,37.0,27.6,20.8,94,69,33,30.38,29.57,3,0,3,0.56
2013-3-10,45.4,34.1,21.4,32.4,28.2,19.9,95,80,58,30.44,30.32,2,0,2,0.01
2013-3-11,53.2,41.5,33.8,40.4,35.3,30.9,93,80,52,30.35,30.17,1,0,1,0.00
2013-3-12,54.6,48.1,40.8,50.8,46.2,39.0,95,93,84,30.17,29.74,1,0,1,0.41
2013-3-13,48.2,41.1,32.5,46.1,30.2,20.8,94,67,36,29.81,29.73,1,0,1,0.00
2013-3-14,34.6,29.2,21.2,24.6,15.1,6.8,69,55,43,29.88,29.74,23,2,23,0.00
2013-3-15,39.2,28.7,18.4,28.7,15.4,6.6,86,59,31,29.92,29.67,23,4,23,0.00
2013-3-16,38.7,32.2,26.9,28.3,17.2,10.2,86,56,34,29.90,29.71,13,1,13,0.00
2013-3-17,40.9,29.4,22.6,37.0,12.1,3.4,86,50,27,30.33,29.57,20,2,20,0.00
2013-3-18,40.9,30.9,15.0,37.0,14.3,1.2,89,55,23,30.49,29.57,11,1,11,0.00
2013-3-19,40.9,30.9,27.3,37.0,29.4,25.1,95,94,86,30.27,29.57,17,3,17,0.32
2013-3-20,36.8,29.8,24.7,26.8,21.0,17.7,95,71,49,29.84,29.73,23,4,23,0.30
2013-3-21,35.7,28.4,22.2,27.9,21.5,15.3,93,76,52,29.85,29.64,8,1,8,0.15
2013-3-22,40.9,32.0,24.3,37.0,20.2,15.3,86,62,43,29.78,29.57,25,4,25,0.04
2013-3-23,40.9,37.6,29.2,37.0,25.5,18.0,86,63,42,29.83,29.57,30,4,30,0.00
2013-3-24,45.6,38.3,30.7,37.0,24.6,19.7,86,59,42,29.86,29.57,16,3,19,0.00
2013-3-25,41.2,36.3,27.6,37.0,30.1,24.0,92,78,65,29.76,29.53,18,2,18,0.00
2013-3-26,46.6,38.8,33.8,29.7,25.8,20.2,79,61,38,29.82,29.56,14,2,14,0.00
2013-3-27,51.9,41.3,29.8,30.6,24.6,20.1,72,53,33,29.90,29.77,19,2,19,0.00
2013-3-28,48.5,41.5,34.6,34.8,32.4,28.8,93,71,48,30.05,29.90,14,1,14,0.01
2013-3-29,56.4,45.4,37.2,34.9,31.7,27.0,80,60,34,30.08,29.99,16,2,16,0.00
2013-3-30,55.2,45.1,34.7,32.6,24.8,15.7,75,49,22,30.13,30.02,17,2,17,0.00
2013-3-31,57.7,44.4,30.3,41.2,28.0,21.4,92,57,25,30.15,29.74,24,3,24,0.06